Location: Rock Island IL
(41.5000°N, 90.5500°W)
Time: 22:53:06
(UTC-05:00)

Tiangong 1 - Visible Passes

Search period start: 22 September 2017 00:00
Search period end: 02 October 2017 00:00
Orbit: 303 x 328 km, 42.8° (Epoch: 22 September)

Date Brightness Start Highest point End Pass type
(mag) Time Alt. Az. Time Alt. Az. Time Alt. Az.
22 Sep 3.6 04:43:14 18° E 04:43:14 18° E 04:44:05 10° E visible
22 Sep 0.9 06:14:03 10° W 06:16:39 52° SSW 06:19:16 10° ESE visible
23 Sep 2.9 04:56:24 26° E 04:56:24 26° E 04:57:44 10° E visible
24 Sep 2.2 05:09:35 31° SE 05:09:35 31° SE 05:11:11 10° ESE visible
25 Sep 2.3 05:22:49 24° SSE 05:22:49 24° SSE 05:24:17 10° SE visible
26 Sep 3.1 05:36:05 13° S 05:36:05 13° S 05:36:43 10° S visible
